DW3263 Weather Reports


time (UTC)temp
C
wind
direction
speed
KPH
gust
KPH
rain 1hr
cm
rain 24hr
cm
rain mn
cm
humidity
%
barometer
mb
20260502204729 12 315 4.8 12.9 0.00 0.03 0.03 45 1010.2
20260502203520 12 315 4.8 11.3 0.00 0.03 0.03 46 1010.2
20260502202520 12 270 4.8 16.1 0.00 0.03 0.03 45 1010.3
20260502201519 12 270 4.8 9.7 0.00 0.03 0.03 48 1010.4
20260502200519 12 315 6.4 16.1 0.00 0.03 0.03 47 1010.5
20260502195734 12 293 4.8 14.5 0.00 0.03 0.03 50 1010.6
20260502194519 12 293 1.6 6.4 0.00 0.03 0.03 47 1010.7
20260502193519 12 293 8.0 17.7 0.00 0.03 0.03 47 1010.8
20260502192520 12 315 8.0 17.7 0.00 0.03 0.03 46 1011.1
20260502191520 12 315 4.8 14.5 0.00 0.03 0.03 49 1011.2
20260502190519 12 315 1.6 8.0 0.00 0.03 0.03 52 1011.4
20260502185943 12 270 6.4 12.9 0.00 0.03 0.03 49 1011.5
20260502184520 12 315 4.8 11.3 0.00 0.03 0.03 50 1011.6
20260502183520 12 270 6.4 14.5 0.00 0.03 0.03 49 1011.7
20260502182733 12 315 4.8 12.9 0.00 0.03 0.03 47 1011.8
20260502181520 12 338 3.2 12.9 0.00 0.03 0.03 47 1011.8
20260502180520 12 293 3.2 25.7 0.00 0.03 0.03 46 1011.8
20260502170519 12 315 4.8 14.5 0.03 0.03 0.03 48 1012.0
20260502163520 11 315 3.2 12.9 0.00 0.00 0.00 52 1012.0
20260502162520 12 270 8.0 22.5 0.00 0.00 0.00 49 1012.3
20260502161520 12 135 3.2 9.7 0.00 0.00 0.00 52 1012.4
20260502160520 11 0 3.2 8.0 0.00 0.00 0.00 46 1012.6
20260502151520 11 68 3.2 9.7 0.00 0.00 0.00 55 1012.7
20260502150520 10 68 1.6 8.0 0.00 0.00 0.00 57 1012.8
20260502130521 7 270 4.8 9.7 0.00 0.03 0.00 49 1013.0
20260502123521 7 315 4.8 14.5 0.00 0.03 0.00 19 1013.0
20260502122731 6 248 4.8 12.9 0.00 0.03 0.00 14 1013.1
20260502121520 6 270 4.8 11.3 0.00 0.03 0.00 100 1013.1
20260502120520 6 270 3.2 6.4 0.00 0.03 0.00 100 1013.0
20260502115520 6 0.0 3.2 0.00 0.03 0.00 100 1013.0
20260502113520 6 315 1.6 4.8 0.00 0.03 0.00 100 1012.8
20260502112520 5 315 1.6 4.8 0.00 0.03 0.00 100 1012.8
20260502111520 5 315 3.2 8.0 0.00 0.03 0.00 100 1012.8
20260502110521 5 0.0 0.0 0.00 0.03 0.00 100 1012.6
20260502105520 5 0.0 0.0 0.00 0.03 0.00 100 1012.6
20260502104520 5 315 1.6 4.8 0.00 0.03 0.00 100 1012.7
20260502103520 5 315 1.6 6.4 0.00 0.03 0.00 100 1012.6
20260502102520 5 315 4.8 8.0 0.00 0.03 0.00 100 1012.5
20260502101520 5 315 3.2 4.8 0.00 0.03 0.00 100 1012.5
20260502100518 5 315 1.6 3.2 0.00 0.03 0.00 100 1012.5
20260502091518 6 315 6.4 14.5 0.00 0.03 0.00 100 1012.2
20260502090521 6 338 4.8 14.5 0.00 0.03 0.00 100 1012.1
20260502071520 6 338 4.8 8.0 0.00 0.03 0.00 100 1011.0
20260502070731 6 0.0 0.0 0.00 0.03 0.00 100 1010.9
20260502065519 6 0.0 0.0 0.00 0.03 0.00 100 1010.8
20260502064521 7 0.0 1.6 0.00 0.03 0.00 100 1010.7
20260502063734 7 0.0 1.6 0.00 0.03 0.00 100 1010.8
20260502062518 7 0.0 3.2 0.00 0.03 0.00 100 1011.0
20260502061518 8 0.0 0.0 0.00 0.03 0.00 100 1011.1
20260502060732 8 338 1.6 4.8 0.00 0.03 0.00 100 1011.1
20260502055518 8 338 1.6 4.8 0.00 0.03 0.00 100 1011.1
20260502054519 8 0.0 3.2 0.00 0.03 0.00 100 1011.0
20260502053521 8 0.0 0.0 0.00 0.03 0.00 100 1010.9
20260502052519 8 0.0 3.2 0.00 0.03 0.00 100 1010.9
20260502051520 8 0.0 0.0 0.00 0.03 0.00 100 1010.9
20260502050520 8 0.0 0.0 0.00 0.03 0.00 100 1011.0
20260502045518 8 0.0 0.0 0.00 0.03 0.00 100 1011.1
20260502044519 8 0.0 0.0 0.00 0.03 0.00 100 1011.2
20260502043520 9 0.0 0.0 0.00 0.05 0.00 100 1011.4
20260502042944 9 0.0 0.0 0.00 0.05 0.00 100 1011.2
20260502041518 9 0.0 0.0 0.00 0.05 0.00 100 1010.9
20260502040519 9 0.0 3.2 0.00 0.05 0.00 100 1010.9
20260502035729 9 0.0 1.6 0.00 0.05 0.05 100 1010.9
20260502034519 9 0.0 3.2 0.00 0.05 0.05 100 1010.8
20260502034157 10 0.0 0.0 0.00 0.05 0.05 100 1010.7
20260502032520 10 0.0 0.0 0.00 0.05 0.05 100 1011.0
20260502031520 10 0.0 4.8 0.00 0.05 0.05 100 1011.3
20260502030520 10 338 1.6 6.4 0.00 0.05 0.05 100 1011.4
20260502025520 10 338 3.2 4.8 0.00 0.05 0.05 100 1011.3
20260502024520 10 338 1.6 4.8 0.00 0.05 0.05 100 1011.1
20260502023732 10 0.0 0.0 0.00 0.05 0.05 100 1011.0
20260502022520 10 0.0 0.0 0.00 0.05 0.05 100 1011.1
20260502021519 10 0.0 4.8 0.00 0.05 0.05 100 1010.9
20260502020520 10 0.0 4.8 0.00 0.05 0.05 100 1010.8
20260502015520 10 0.0 0.0 0.00 0.05 0.05 100 1011.0
20260502014520 10 338 1.6 3.2 0.00 0.05 0.05 100 1010.9
20260502013520 10 338 1.6 6.4 0.00 0.05 0.05 100 1010.7
20260502012520 10 338 1.6 4.8 0.00 0.05 0.05 100 1010.4
20260502011520 10 0.0 3.2 0.00 0.05 0.05 100 1010.2
20260502010520 10 0.0 0.0 0.00 0.05 0.05 100 1010.0
20260502005520 10 338 3.2 8.0 0.00 0.05 0.05 100 1009.7
20260502004520 10 338 1.6 4.8 0.00 0.05 0.05 100 1009.7
20260502003520 10 0.0 1.6 0.00 0.05 0.05 100 1009.3
20260502002520 10 338 1.6 4.8 0.00 0.05 0.05 100 1009.2
20260502001520 11 0.0 0.0 0.00 0.05 0.05 100 1009.0
20260502000520 11 0.0 0.0 0.00 0.05 0.05 100 1008.9
20260501235731 11 0.0 0.0 0.00 0.05 0.05 100 1008.9
20260501234520 11 0.0 0.0 0.00 0.05 0.05 100 1009.0
20260501233520 12 0.0 0.0 0.00 0.05 0.05 100 1009.0
20260501232520 12 0.0 0.0 0.00 0.05 0.05 100 1008.9
20260501231520 12 338 1.6 4.8 0.00 0.05 0.05 28 1008.9
20260501230520 12 0.0 0.0 0.00 0.05 0.05 18 1008.9
20260501225520 12 0.0 1.6 0.00 0.05 0.05 41 1009.0
20260501224520 12 338 1.6 4.8 0.00 0.05 0.05 51 1009.0
20260501223520 12 338 1.6 3.2 0.00 0.05 0.05 60 1009.3
20260501222520 12 338 3.2 8.0 0.00 0.05 0.05 63 1009.3
20260501221520 13 338 8.0 19.3 0.00 0.05 0.05 63 1009.5
20260501220520 13 315 9.7 17.7 0.00 0.05 0.05 60 1009.1
20260501215520 15 180 4.8 9.7 0.00 0.08 0.05 52 1008.8
20260501214520 15 180 3.2 8.0 0.00 0.08 0.05 50 1008.5
20260501213520 15 180 3.2 6.4 0.00 0.08 0.05 51 1008.4
20260501212520 16 180 3.2 6.4 0.00 0.08 0.05 52 1008.3
20260501211520 16 180 4.8 11.3 0.00 0.08 0.05 50 1008.4
20260501210520 16 180 4.8 11.3 0.00 0.08 0.05 49 1008.2
20260501205734 16 203 4.8 9.7 0.00 0.08 0.05 50 1008.1